#timestamp,LO_Frequency,Hit 
1498957215.8,286046995.2,N
1498957235.7,286046990.2,N
1498957255.5,286046988.2,N
1498957275.3,286046985.0,N
1498957295.2,286046985.9,N
1498957315.9,286046991.4,N
1498957335.7,286046992.5,N
1498957355.6,286046991.9,N
1498957375.4,286046992.2,N
1498957395.2,286046998.8,N
1498957415.1,286047001.8,N
1498957416.0,286047001.8,N
1498957435.8,286047004.2,N
1498957455.6,286046993.5,N
1498957475.4,286046989.0,N
1498957495.3,286046987.9,N
1498957515.1,286046992.6,N
1498957535.8,286046989.6,N
1498957555.7,286046984.6,N
1498957575.5,286046981.4,N
1498957595.3,286046982.0,N
1498957615.2,286046978.9,N
1498957635.9,286046980.1,N
1498957655.7,286046981.6,N
1498957675.6,286046990.3,N
1498957695.4,286046998.1,N
1498957715.2,286047003.1,N
1498957735.1,286047005.2,N
1498957736.0,286047005.2,N
1498957755.8,286047002.9,N
1498957775.6,286047007.8,N
1498957795.5,286047013.5,N
1498957815.3,286047012.0,N
1498957835.1,286047008.2,N
1498957855.8,286047005.9,N
1498957875.7,286046999.4,N
1498957895.5,286046991.8,N
1498957915.3,286046985.4,N
1498957935.2,286046981.1,N
1498957955.9,286046982.3,N
1498957975.7,286046986.1,N
1498957995.6,286046991.5,N
1498958015.4,286046985.8,N
1498958035.2,286046980.8,N
1498958055.1,286046981.6,N
1498958056.0,286046981.6,N
1498958075.8,286046979.5,N
1498958095.6,286046980.0,N
1498958115.5,286046977.8,N
1498958135.3,286046982.0,N
1498958155.1,286046985.9,N
1498958175.8,286046990.1,N
1498958195.7,286046995.8,N
1498958215.5,286046996.7,N
1498958235.3,286046992.3,N
1498958255.2,286046993.5,N
1498958275.9,286046998.3,N
1498958295.7,286047001.9,N
1498958315.6,286046998.4,N
1498958335.4,286046997.5,N
1498958355.2,286046998.5,N
1498958375.1,286046993.6,N
1498958376.0,286046993.6,N
1498958395.8,286046993.9,N
1498958415.6,286046993.6,N
1498958435.5,286046989.2,N
1498958455.3,286046984.9,N
1498958475.1,286046980.2,N
1498958495.9,286046979.1,N
1498958515.7,286046983.5,N
1498958535.5,286046984.3,N
1498958555.3,286046988.4,N
1498958575.2,286046993.1,N
1498958595.0,286046993.8,N
1498958595.9,286046993.8,N
1498958615.7,286047002.7,N
1498958635.6,286047005.7,N
1498958655.4,286047005.0,N
1498958675.2,286047008.9,N
1498958695.1,286047007.9,N
1498958696.0,286047007.9,N
1498958715.8,286047013.4,N
1498958735.6,286047015.2,N
1498958755.5,286047012.8,N
1498958775.3,286047006.3,N
1498958795.1,286047002.0,N
1498958815.9,286046996.1,N
1498958835.7,286046992.3,N
1498958855.5,286046989.3,N
1498958875.4,286046987.3,N
1498958895.2,286046990.2,N
1498958915.0,286046986.2,N
1498958915.9,286046986.2,N
1498958935.7,286046993.0,N
1498958955.6,286046994.3,N
1498958975.4,286046995.8,N
1498958995.2,286046995.5,N
1498959015.1,286046995.4,N
1498959016.0,286046995.4,N
1498959035.8,286047002.4,N
1498959055.6,286047005.4,N
1498959075.5,286047008.2,N
1498959095.3,286047011.9,N
1498959115.1,286047010.2,N
1498959135.9,286047011.2,N
1498959155.7,286047009.3,N
1498959175.5,286047006.6,N
1498959195.4,286047013.3,N
1498959215.2,286047020.5,N
1498959235.0,286047028.4,N
1498959235.9,286047028.4,N
1498959255.8,286047029.9,N
1498959275.6,286047026.0,N
1498959295.4,286047022.9,N
1498959315.2,286047016.5,N
1498959335.1,286047009.1,N
1498959336.0,286047009.1,N
1498959355.8,286047002.5,N
1498959375.6,286046996.4,N
1498959395.5,286046991.7,N
1498959415.3,286046992.1,N
1498959435.1,286046997.4,N
1498959455.9,286047006.8,N
1498959475.7,286047021.4,N
1498959495.5,286047026.8,N
1498959515.4,286047024.9,N
1498959535.2,286047020.0,N
1498959555.0,286047013.5,N
1498959555.9,286047013.5,N
1498959575.8,286047008.6,N
1498959595.6,286047001.7,N
1498959615.4,286047004.4,N
1498959635.2,286047008.8,N
1498959655.1,286047017.7,N
1498959656.0,286047017.7,N
1498959675.8,286047023.7,N
1498959695.6,286047031.9,N
1498959715.5,286047033.3,N
1498959735.3,286047030.1,N
1498959755.1,286047025.3,N
1498959775.9,286047022.9,N
1498959795.7,286047024.8,N
1498959815.5,286047019.8,N
1498959835.4,286047012.7,N
1498959855.2,286047009.9,N
1498959875.0,286047011.4,N
1498959875.9,286047011.4,N
1498959895.8,286047012.5,N
1498959915.6,286047013.7,N
1498959935.4,286047018.3,N
1498959955.3,286047020.6,N
1498959975.1,286047025.3,N
1498959976.0,286047025.3,N
1498959995.8,286047025.6,N
1498960015.7,286047024.0,N
1498960035.5,286047019.9,N
1498960055.3,286047017.0,N
1498960075.2,286047010.6,N
1498960095.9,286047004.2,N
1498960115.7,286046998.4,N
1498960135.5,286046996.0,N
1498960155.4,286046994.1,N
1498960175.2,286046998.9,N
1498960195.0,286047001.9,N
1498960195.9,286047001.9,N
1498960215.8,286047001.2,N
1498960235.6,286046998.6,N
1498960255.4,286046998.8,N
1498960275.3,286047005.3,N
1498960295.1,286047009.6,N
1498960296.0,286047009.6,N
1498960315.8,286047014.0,N
1498960335.7,286047017.0,N
1498960355.5,286047022.0,N
1498960375.3,286047019.9,N
1498960395.2,286047011.5,N
1498960415.9,286047011.3,N
1498960435.7,286047018.7,N
1498960455.6,286047021.8,N
1498960475.4,286047026.6,N
1498960495.2,286047025.2,N
1498960515.0,286047014.1,N
1498960515.9,286047014.1,N
1498960535.8,286047008.1,N
1498960555.6,286047003.7,N
1498960575.4,286046999.8,N
1498960595.3,286046997.0,N
1498960615.1,286047000.0,N
1498960635.8,286047007.6,N
1498960655.7,286047009.9,N
1498960675.5,286047016.7,N
1498960695.3,286047015.8,N
1498960715.2,286047017.6,N
1498960735.9,286047018.3,N
1498960755.7,286047015.6,N
1498960775.6,286047008.0,N
1498960795.4,286047008.5,N
